Voltar ao catálogo

INTELSAT 3-F4

AtivoComunicaçõesGEO
NORAD 3947·PAYLOAD· XX

Lançado May 22, 1969 de Cape Canaveral Space Force Station

Loading…

TLE

AtualizadoSource: Space-Track

Época: Sep 14, 2026, 12:35 UTC

1 03947U 69045A   26257.52469536 -.00000108  00000-0  00000-0 0  9999
2 03947   3.5088 288.6908 0021968  77.8672 281.8527  0.90044718 66764

Acompanhe INTELSAT 3-F4 em tempo real com AllMySat

Download on the App Store